• In Germany
  • List of Countries
  • For 7 days
  • Water Temperature
  • Satellite Maps
  • Weather Map
  • Weather Widgets
  • user-avatar
    Login

    Hourly Weather Ordino

    Today, 26 April, Wednesday

    Time Temperature Precipitation Wind Pressure Humidity
    00:00 +6°C° 0 mm 1 mps 626 mmHg 98%
    01:00 +5°C° 0.5 mm 1 mps 626 mmHg 97%
    02:00 +5°C° 0.5 mm 1 mps 626 mmHg 97%
    03:00 +5°C° 0.5 mm 1 mps 626 mmHg 97%
    04:00 +5°C° 0.5 mm 1 mps 626 mmHg 97%
    05:00 +5°C° 0.5 mm 1 mps 626 mmHg 97%
    06:00 +5°C° 0 mm 1 mps 626 mmHg 97%
    07:00 +5°C° 0.4 mm 1 mps 627 mmHg 95%
    08:00 +4°C° 0.4 mm 2 mps 627 mmHg 93%
    09:00 +4°C° 0.4 mm 2 mps 627 mmHg 91%
    10:00 +4°C° 0.5 mm 2 mps 627 mmHg 89%
    11:00 +4°C° 0.5 mm 2 mps 628 mmHg 87%
    12:00 +4°C° 0.5 mm 2 mps 628 mmHg 85%
    13:00 +4°C° 0.8 mm 2 mps 628 mmHg 86%
    14:00 +4°C° 0.8 mm 2 mps 628 mmHg 86%
    15:00 +3°C° 0.8 mm 2 mps 627 mmHg 86%
    16:00 +3°C° 0.8 mm 2 mps 627 mmHg 88%
    17:00 +1°C° 0.8 mm 3 mps 627 mmHg 89%
    18:00 0°C° 0.8 mm 3 mps 627 mmHg 91%
    19:00 -1°C° 1 mm 3 mps 627 mmHg 91%
    20:00 -2°C° 1 mm 3 mps 627 mmHg 91%
    21:00 -2°C° 1 mm 3 mps 627 mmHg 91%
    22:00 -2°C° 0.6 mm 2 mps 627 mmHg 91%
    23:00 -3°C° 0.6 mm 2 mps 627 mmHg 92%

    Tomorrow, 27 April, Thursday

    Time Temperature Precipitation Wind Pressure Humidity
    00:00 -3°C° 0.6 mm 2 mps 627 mmHg 92%
    01:00 -3°C° 0.5 mm 2 mps 627 mmHg 93%
    02:00 -3°C° 0.5 mm 2 mps 627 mmHg 94%
    03:00 -3°C° 0.5 mm 2 mps 627 mmHg 94%
    04:00 -4°C° 0.3 mm 2 mps 627 mmHg 94%
    05:00 -4°C° 0.3 mm 2 mps 627 mmHg 93%
    06:00 -4°C° 0.3 mm 2 mps 627 mmHg 92%
    07:00 -4°C° 0.3 mm 3 mps 627 mmHg 88%
    08:00 -4°C° 0.3 mm 3 mps 628 mmHg 84%
    09:00 -2°C° 0.3 mm 3 mps 628 mmHg 81%
    10:00 -1°C° 0.1 mm 3 mps 629 mmHg 78%
    11:00 0°C° 0.1 mm 3 mps 629 mmHg 75%
    12:00 +1°C° 0.1 mm 3 mps 629 mmHg 72%
    13:00 +1°C° 0.3 mm 3 mps 629 mmHg 73%
    14:00 +1°C° 0.3 mm 3 mps 629 mmHg 73%
    15:00 +1°C° 0.3 mm 3 mps 629 mmHg 73%
    16:00 0°C° 0.2 mm 3 mps 629 mmHg 75%
    17:00 -1°C° 0.2 mm 3 mps 629 mmHg 77%
    18:00 -2°C° 0.2 mm 3 mps 629 mmHg 79%
    19:00 -4°C° 0 mm 3 mps 629 mmHg 81%
    20:00 -5°C° 0 mm 3 mps 629 mmHg 82%
    21:00 -7°C° 0 mm 3 mps 630 mmHg 83%
    22:00 -7°C° 0 mm 3 mps 630 mmHg 83%
    23:00 -7°C° 0 mm 3 mps 630 mmHg 82%

    Day after tomorrow, 28 April, Friday

    Time Temperature Precipitation Wind Pressure Humidity
    00:00 -7°C° 0 mm 3 mps 630 mmHg 82%
    01:00 -8°C° 0 mm 3 mps 630 mmHg 81%
    02:00 -8°C° 0 mm 3 mps 630 mmHg 81%
    03:00 -8°C° 0 mm 3 mps 630 mmHg 80%
    04:00 -7°C° 0 mm 3 mps 630 mmHg 78%
    05:00 -7°C° 0 mm 3 mps 630 mmHg 76%
    06:00 -5°C° 0 mm 2 mps 630 mmHg 74%
    07:00 -3°C° 0 mm 2 mps 631 mmHg 70%
    08:00 -1°C° 0 mm 2 mps 632 mmHg 66%
    09:00 +2°C° 0 mm 2 mps 633 mmHg 61%
    10:00 +3°C° 0 mm 2 mps 633 mmHg 60%
    11:00 +4°C° 0 mm 2 mps 633 mmHg 59%
    12:00 +5°C° 0 mm 2 mps 633 mmHg 58%
    13:00 +6°C° 0 mm 2 mps 633 mmHg 58%
    14:00 +6°C° 0 mm 2 mps 633 mmHg 58%
    15:00 +6°C° 0 mm 2 mps 633 mmHg 59%
    16:00 +6°C° 0 mm 1 mps 632 mmHg 64%
    17:00 +6°C° 0 mm 1 mps 632 mmHg 69%
    18:00 +5°C° 0 mm 1 mps 632 mmHg 75%
    19:00 +2°C° 0 mm 1 mps 631 mmHg 81%
    20:00 0°C° 0 mm 1 mps 630 mmHg 87%
    21:00 -2°C° 0 mm 1 mps 630 mmHg 93%
    22:00 -3°C° 0 mm 1 mps 629 mmHg 93%
    23:00 -5°C° 0 mm 0 mps 629 mmHg 93%

    29 April, Saturday

    Time Temperature Precipitation Wind Pressure Humidity
    00:00 -6°C° 0 mm 0 mps 628 mmHg 93%
    01:00 -6°C° 0 mm 0 mps 628 mmHg 93%
    02:00 -6°C° 0 mm 0 mps 627 mmHg 93%
    03:00 -6°C° 0 mm 0 mps 627 mmHg 92%
    04:00 -3°C° 0 mm 1 mps 628 mmHg 88%
    05:00 -2°C° 0 mm 1 mps 629 mmHg 84%
    06:00 0°C° 0 mm 1 mps 629 mmHg 80%
    07:00 +3°C° 0 mm 1 mps 630 mmHg 73%
    08:00 +4°C° 0 mm 2 mps 631 mmHg 67%
    09:00 +6°C° 0 mm 2 mps 631 mmHg 61%
    10:00 +7°C° 0 mm 2 mps 631 mmHg 58%
    11:00 +8°C° 0 mm 3 mps 631 mmHg 56%
    12:00 +9°C° 0 mm 3 mps 632 mmHg 54%
    13:00 +9°C° 0 mm 3 mps 631 mmHg 55%
    14:00 +9°C° 0 mm 3 mps 631 mmHg 56%
    15:00 +9°C° 0 mm 3 mps 630 mmHg 57%
    16:00 +8°C° 0 mm 3 mps 630 mmHg 64%
    17:00 +7°C° 0 mm 3 mps 629 mmHg 71%
    18:00 +5°C° 0 mm 2 mps 629 mmHg 78%
    19:00 +4°C° 0 mm 2 mps 629 mmHg 81%
    20:00 +3°C° 0 mm 2 mps 628 mmHg 85%
    21:00 +2°C° 0 mm 2 mps 628 mmHg 89%
    22:00 +2°C° 0 mm 2 mps 628 mmHg 90%
    23:00 +1°C° 0 mm 2 mps 628 mmHg 91%

    30 April, Sunday

    Time Temperature Precipitation Wind Pressure Humidity
    00:00 +1°C° 0 mm 2 mps 627 mmHg 91%
    01:00 +1°C° 0 mm 2 mps 627 mmHg 91%
    02:00 +2°C° 0 mm 2 mps 627 mmHg 90%
    03:00 +2°C° 0 mm 2 mps 627 mmHg 89%
    04:00 +2°C° 0.1 mm 2 mps 627 mmHg 89%
    05:00 +3°C° 0.1 mm 2 mps 627 mmHg 88%
    06:00 +3°C° 0.1 mm 2 mps 627 mmHg 87%
    07:00 +4°C° 0.3 mm 3 mps 628 mmHg 84%
    08:00 +5°C° 0.3 mm 3 mps 628 mmHg 82%
    09:00 +7°C° 0.3 mm 3 mps 629 mmHg 79%
    10:00 +8°C° 0.3 mm 3 mps 628 mmHg 78%
    11:00 +8°C° 0.3 mm 3 mps 628 mmHg 77%
    12:00 +9°C° 0.3 mm 3 mps 628 mmHg 75%
    13:00 +8°C° 0.5 mm 4 mps 628 mmHg 76%
    14:00 +8°C° 0.5 mm 4 mps 628 mmHg 77%
    15:00 +8°C° 0.5 mm 4 mps 627 mmHg 77%
    16:00 +7°C° 0.5 mm 4 mps 627 mmHg 80%
    17:00 +7°C° 0.5 mm 4 mps 627 mmHg 83%
    18:00 +6°C° 0.5 mm 4 mps 626 mmHg 85%
    19:00 +5°C° 1.5 mm 4 mps 626 mmHg 87%
    20:00 +5°C° 1.5 mm 4 mps 627 mmHg 90%
    21:00 +3°C° 1.5 mm 5 mps 627 mmHg 92%
    22:00 +3°C° 2.9 mm 4 mps 627 mmHg 94%
    23:00 +3°C° 2.9 mm 3 mps 627 mmHg 96%

    1 May, Monday

    Time Temperature Precipitation Wind Pressure Humidity
    00:00 +2°C° 2.9 mm 3 mps 626 mmHg 97%
    01:00 +2°C° 0.7 mm 2 mps 626 mmHg 97%
    02:00 +2°C° 0.7 mm 2 mps 626 mmHg 97%
    03:00 +1°C° 0.7 mm 2 mps 626 mmHg 97%
    04:00 -1°C° 0.4 mm 2 mps 626 mmHg 95%
    05:00 +1°C° 0.4 mm 1 mps 626 mmHg 94%
    06:00 +1°C° 0.4 mm 1 mps 627 mmHg 93%
    07:00 +2°C° 0.3 mm 1 mps 628 mmHg 86%
    08:00 +2°C° 0.3 mm 2 mps 629 mmHg 80%
    09:00 +3°C° 0.3 mm 2 mps 630 mmHg 73%
    10:00 +4°C° 0.2 mm 2 mps 630 mmHg 68%
    11:00 +5°C° 0.2 mm 2 mps 631 mmHg 62%
    12:00 +7°C° 0.2 mm 3 mps 632 mmHg 57%
    13:00 +6°C° 0.4 mm 2 mps 632 mmHg 60%
    14:00 +6°C° 0.4 mm 2 mps 632 mmHg 63%
    15:00 +5°C° 0.4 mm 2 mps 632 mmHg 66%
    16:00 +5°C° 0.4 mm 2 mps 632 mmHg 69%
    17:00 +4°C° 0.4 mm 2 mps 632 mmHg 73%
    18:00 +5°C° 0.4 mm 1 mps 632 mmHg 76%
    19:00 +3°C° 0.1 mm 1 mps 632 mmHg 81%
    20:00 +2°C° 0.1 mm 1 mps 632 mmHg 86%
    21:00 0°C° 0.1 mm 1 mps 633 mmHg 90%
    22:00 0°C° 0.1 mm 1 mps 633 mmHg 90%
    23:00 0°C° 0.1 mm 1 mps 633 mmHg 90%
    Show more